SL-4 R/B (44070 NORAD) Tracking and Keplerian Element Data

This shows tracking and keplerian element data for the satellite.

Feedback or suggestion? Click here.




ElementValue
Catalog44070
NameSL-4 R/B
Epoch Orbit42
Epoch Day76.36498728
Epoch Year2019
RAAN96.2497
Inclination51.6284
Eccentricity0.0003254
Argument of Perigee37.7381
Mean Anonmoly322.5791
Mean Motion16.45122955
Decay Rate0.12555064
L11 44070U 19013B 19076.36498728 .12555064 12584-4 37779-3 0 9997
L22 44070 51.6284 96.2497 0003254 37.7381 322.5791 16.45122955 428

Live tracking and technical data element details for SL-4 R/B (NORAD 44070). SL-4 R/B can be tracked NOW for your location showing map with azimuth and elevation plus other details from your city location.

Track the satellite on the map from your city or location and see movement details for azimuth, elevation, latitude, longitude, range, height, and movement on the map or in text.







IsCatalogInMostPopularTable: catalog: 44070, numindb: 46
Update: records affected: 1



GetName: 44070 SL-4 R/B

Hit Count: updated at: Mon, 22 Jul 2019 03:36:11 GMT